This is the latest recevied weather packets stored in our database for station/object SR2GKG-13. If no packets are shown the sender has not sent any weather packets the latest 10 day(s).
| Time | Temp. | Humidity | Pressure | Rain* | Wind** | Luminosity | Snow |
|---|---|---|---|---|---|---|---|
| 1788103064 | 25.56° C | 57% | 1000.3 hPa | - | - | - | - |
| 1788102164 | 26.11° C | 57% | 1000.3 hPa | - | - | - | - |
| 1788101264 | 26.11° C | 58% | 1000.3 hPa | - | - | - | - |
| 1788100364 | 26.11° C | 58% | 1000.3 hPa | - | - | - | - |
| 1788099464 | 26.11° C | 55% | 1000.4 hPa | - | - | - | - |
| 1788098564 | 26.11° C | 54% | 1000.5 hPa | - | - | - | - |
| 1788097664 | 26.11° C | 54% | 1000.6 hPa | - | - | - | - |
| 1788096763 | 25° C | 56% | 1000.6 hPa | - | - | - | - |
| 1788095863 | 25.56° C | 56% | 1000.5 hPa | - | - | - | - |
| 1788094963 | 25.56° C | 58% | 1000.6 hPa | - | - | - | - |
| 1788094063 | 25.56° C | 61% | 1000.4 hPa | - | - | - | - |
| 1788093163 | 25.56° C | 57% | 1000.6 hPa | - | - | - | - |
| 1788092263 | 26.67° C | 59% | 1000.7 hPa | - | - | - | - |
| 1788091363 | 26.11° C | 56% | 1000.7 hPa | - | - | - | - |
| 1788090463 | 26.11° C | 63% | 1000.8 hPa | - | - | - | - |
| 1788089563 | 25° C | 62% | 1000.8 hPa | - | - | - | - |
| 1788088663 | 25.56° C | 61% | 1001 hPa | - | - | - | - |
| 1788087762 | 25° C | 61% | 1001.1 hPa | - | - | - | - |
| 1788086862 | 25° C | 64% | 1001.3 hPa | - | - | - | - |
| 1788085962 | 25° C | 62% | 1001.4 hPa | - | - | - | - |
| 1788085062 | 24.44° C | 63% | 1001.4 hPa | - | - | - | - |
| 1788084162 | 23.89° C | 67% | 1001.5 hPa | - | - | - | - |
| 1788083262 | 23.89° C | 63% | 1001.5 hPa | - | - | - | - |
| 1788082362 | 23.33° C | 65% | 1001.5 hPa | - | - | - | - |
| 1788081462 | 23.33° C | 67% | 1001.6 hPa | - | - | - | - |
* Rain since midnight (hover to see other rain measurements)
** Current wind speed in m/s (hover to see current wind gust speed)